Refine Search
Year Filed

2010 ×

Court

New York Southern ×

Click on desired case number or refine your search to continue

Case TitleCourtCase NoChpDate FiledClosedDisposition
Saint Vincents Catholic Medical Centers of New Yor and Liquidating TrusteeNew York Southern1:10-bk-119631104/14/201012/11/2012
The Great Atlantic & Pacific Tea Company, Inc.New York Southern7:10-bk-245491112/12/201001/28/2016Discharge Not Applicable
BB Liquidating Inc.New York Southern1:10-bk-14997709/23/201006/29/2017Discharge Not Applicable
Fairfield Sentry Limited and Nomura International plcNew York Southern1:10-bk-131641506/14/2010
Operations NY LLCNew York Southern1:10-bk-13446706/29/201003/07/2017Discharge Not Applicable
CBGB Holdings, LLCNew York Southern1:10-bk-131301106/11/201012/02/2010
Boston Generating, LLCNew York Southern1:10-bk-144191108/18/201005/27/2015
JSC Alliance Bank and Maxat Rakhimzhanovich KabashevNew York Southern1:10-bk-107611502/16/201002/11/2014
MGM Holdings Inc.New York Southern1:10-bk-157761111/03/201002/18/2011Discharge Not Applicable
FKF 3, LLC and 89 Broadway, Park Ridge, L.L.C.New York Southern4:10-bk-371701107/19/2010
Innkeepers USA Limited PartnershipNew York Southern1:10-bk-137941107/19/201009/03/2015
RHI Entertainment, Inc.New York Southern1:10-bk-165361112/10/201009/19/2011Discharge Not Applicable
Innkeepers USA TrustNew York Southern1:10-bk-138001107/19/201009/03/2015
Anthracite Capital, Inc.New York Southern1:10-bk-11319703/15/201003/06/2015Discharge Not Applicable
Penton Business Media Holdings, Inc.New York Southern1:10-bk-106891102/10/201003/31/2010Discharge Not Applicable
American Mortgage Acceptance CompanyNew York Southern1:10-bk-121961104/26/201001/13/2011Discharge Not Applicable
Vertis Holdings, Inc.New York Southern1:10-bk-161701111/17/2010
American Media Operations, Inc.New York Southern1:10-bk-161411111/17/201004/27/2011Discharge Not Applicable
Domestic Library Acquisition, LLCNew York Southern1:10-bk-158011111/03/201002/17/2011Discharge Not Applicable
Spongetech DeliverySystems Inc.New York Southern1:10-bk-13647707/09/201008/28/2014Discharge Not Applicable
Sheldrake Lofts LLCNew York Southern7:10-bk-236501108/10/2010
Allstar Electric Corp.New York Southern7:10-bk-246481112/17/201004/18/2011Dismissed for Other Reason
Greenberg & Hammer, Inc.New York Southern1:10-bk-15144709/30/2010
Accurate Copy Services of America, Inc.New York Southern1:10-bk-12291704/29/201008/21/2014Discharge Not Applicable
Ross Network, Inc. D/B/A Print InternationalNew York Southern1:10-bk-13929707/21/201003/27/2017Discharge Not Applicable
Berlin & Denmar Distributors, Inc.New York Southern1:10-bk-155191110/21/2010
Wit, Inc.New York Southern1:10-bk-11548703/24/2010
SLA Lake Mary, Inc.New York Southern1:10-bk-102601101/20/201003/30/2011Discharge Not Applicable
The Glazier Group, Inc.New York Southern1:10-bk-160991111/15/2010
Kohl's Food Stores, Inc.New York Southern7:10-bk-245741112/12/2010
Mesa Air Group, Inc.New York Southern1:10-bk-100181101/05/201007/01/2013Discharge Not Applicable
Dynamic -283 West Broadway LLCNew York Southern1:10-bk-101531101/13/201001/30/2014Dismissed for Other Reason 04/15/2010
MGM NMOC LLCNew York Southern1:10-bk-158601111/03/201002/18/2011
El Paso Films LLCNew York Southern1:10-bk-158031111/03/2010
John R. Demos and The Virginia CompanyNew York Southern1:10-bk-15279709/20/2010
Quick Cash LLCNew York Southern7:10-bk-230821105/27/2010
Money Kiosk Corp.New York Southern7:10-bk-230741105/27/2010
MKey, LLCNew York Southern7:10-bk-230731105/27/2010
Michelle Corp.New York Southern7:10-bk-230721105/27/2010
GT Public Services, Inc.New York Southern7:10-bk-230701105/27/2010
GNC Payroll Plus, Inc.New York Southern7:10-bk-230691105/27/2010
District Security Services, LLCNew York Southern7:10-bk-230661105/27/2010
ATM Management, LLCNew York Southern7:10-bk-230611105/27/2010
GSCP, LLCNew York Southern1:10-bk-146511108/31/2010
GSC Group, Inc.New York Southern1:10-bk-146531108/31/2010
BB Liquidating ML, LLCNew York Southern1:10-bk-15006709/23/2010
BB Liquidating Investments LLCNew York Southern1:10-bk-15003709/23/2010
BB Liquidating Global Services, Inc.New York Southern1:10-bk-15001709/23/2010
BB Liquidating International Spain Inc.New York Southern1:10-bk-15002709/23/2010
BB Liquidating B2 LLCNew York Southern1:10-bk-15008709/23/2010